Time,TemperatureF,DewpointF,PressureIn,WindDirection,WindDirectionDegrees,WindSpeedMPH,WindSpeedGustMPH,Humidity,HourlyPrecipIn,Conditions,Clouds,dailyrainin,SoftwareType,DateUTC
2013-04-28 00:01:00,63.0,25.0,29.56,SE,139,6.0,19.0,23,0.00,,,0.00,,2013-04-28 06:01:00,
2013-04-28 00:12:00,63.0,25.0,29.56,SE,139,6.0,19.0,23,0.00,,,0.00,,2013-04-28 06:12:00,
2013-04-28 00:21:00,62.0,25.0,29.57,ESE,103,3.0,7.0,24,0.00,,,0.00,,2013-04-28 06:21:00,
2013-04-28 00:32:00,60.0,25.0,29.56,NE,53,8.0,10.0,26,0.00,,,0.00,,2013-04-28 06:32:00,
2013-04-28 00:42:00,60.0,25.0,29.56,NE,53,8.0,10.0,26,0.00,,,0.00,,2013-04-28 06:42:00,
2013-04-28 00:51:00,60.0,24.0,29.56,ENE,59,0.0,9.0,25,0.00,,,0.00,,2013-04-28 06:51:00,
2013-04-28 01:01:00,60.0,25.0,29.57,North,350,2.0,7.0,26,0.00,,,0.00,,2013-04-28 07:01:00,
2013-04-28 01:11:00,60.0,25.0,29.57,North,350,2.0,7.0,26,0.00,,,0.00,,2013-04-28 07:11:00,
2013-04-28 01:21:00,58.0,25.0,29.57,West,275,6.0,8.0,28,0.00,,,0.00,,2013-04-28 07:21:00,
2013-04-28 01:31:00,60.0,24.0,29.57,WSW,246,3.0,18.0,25,0.00,,,0.00,,2013-04-28 07:31:00,
2013-04-28 01:42:00,60.0,24.0,29.57,WSW,246,3.0,18.0,25,0.00,,,0.00,,2013-04-28 07:42:00,
2013-04-28 01:52:00,59.0,22.0,29.57,West,262,6.0,15.0,24,0.00,,,0.00,,2013-04-28 07:52:00,
2013-04-28 02:01:00,61.0,23.0,29.57,WNW,283,11.0,17.0,23,0.00,,,0.00,,2013-04-28 08:01:00,
2013-04-28 02:11:00,61.0,23.0,29.57,WNW,283,11.0,17.0,23,0.00,,,0.00,,2013-04-28 08:11:00,
2013-04-28 02:21:00,58.0,22.0,29.57,SSW,212,8.0,11.0,25,0.00,,,0.00,,2013-04-28 08:21:00,
2013-04-28 02:32:00,59.0,23.0,29.58,North,11,3.0,15.0,25,0.00,,,0.00,,2013-04-28 08:32:00,
2013-04-28 02:42:00,59.0,23.0,29.58,North,11,3.0,15.0,25,0.00,,,0.00,,2013-04-28 08:42:00,
2013-04-28 02:51:00,56.0,24.0,29.58,ENE,62,3.0,7.0,29,0.00,,,0.00,,2013-04-28 08:51:00,
2013-04-28 03:01:00,53.0,24.0,29.58,ENE,60,1.0,4.0,32,0.00,,,0.00,,2013-04-28 09:01:00,
2013-04-28 03:11:00,53.0,24.0,29.58,ENE,60,1.0,4.0,32,0.00,,,0.00,,2013-04-28 09:11:00,
2013-04-28 03:21:00,50.0,24.0,29.58,NNW,341,2.0,5.0,36,0.00,,,0.00,,2013-04-28 09:21:00,
2013-04-28 03:32:00,50.0,25.0,29.59,NNW,338,0.0,4.0,37,0.00,,,0.00,,2013-04-28 09:32:00,
2013-04-28 03:42:00,50.0,25.0,29.59,NNW,338,0.0,4.0,37,0.00,,,0.00,,2013-04-28 09:42:00,
2013-04-28 03:53:00,49.0,25.0,29.59,NW,318,4.0,5.0,38,0.00,,,0.00,,2013-04-28 09:53:00,
2013-04-28 04:02:00,50.0,24.0,29.60,WNW,301,3.0,5.0,36,0.00,,,0.00,,2013-04-28 10:02:00,
2013-04-28 04:12:00,50.0,24.0,29.60,WNW,301,3.0,5.0,36,0.00,,,0.00,,2013-04-28 10:12:00,
2013-04-28 04:22:00,51.0,23.0,29.61,WNW,302,2.0,6.0,33,0.00,,,0.00,,2013-04-28 10:22:00,
2013-04-28 04:32:00,52.0,24.0,29.61,WNW,302,4.0,7.0,33,0.00,,,0.00,,2013-04-28 10:32:00,
2013-04-28 04:42:00,52.0,24.0,29.61,WNW,302,4.0,7.0,33,0.00,,,0.00,,2013-04-28 10:42:00,
2013-04-28 04:52:00,51.0,24.0,29.61,NW,309,4.0,8.0,35,0.00,,,0.00,,2013-04-28 10:52:00,
2013-04-28 05:02:00,51.0,24.0,29.62,NW,305,5.0,8.0,35,0.00,,,0.00,,2013-04-28 11:02:00,
2013-04-28 05:11:00,51.0,24.0,29.62,NW,305,5.0,8.0,35,0.00,,,0.00,,2013-04-28 11:11:00,
2013-04-28 05:21:00,51.0,24.0,29.63,NW,312,2.0,5.0,35,0.00,,,0.00,,2013-04-28 11:21:00,
2013-04-28 05:32:00,51.0,24.0,29.62,WNW,302,1.0,6.0,35,0.00,,,0.00,,2013-04-28 11:32:00,
2013-04-28 05:42:00,51.0,24.0,29.62,WNW,302,1.0,6.0,35,0.00,,,0.00,,2013-04-28 11:42:00,
2013-04-28 05:52:00,50.0,23.0,29.62,NW,306,3.0,7.0,35,0.00,,,0.00,,2013-04-28 11:52:00,
2013-04-28 06:01:00,49.0,24.0,29.63,WNW,301,3.0,7.0,37,0.00,,,0.00,,2013-04-28 12:01:00,
2013-04-28 06:11:00,49.0,24.0,29.63,WNW,301,3.0,7.0,37,0.00,,,0.00,,2013-04-28 12:11:00,
2013-04-28 06:21:00,49.0,26.0,29.63,WNW,300,2.0,6.0,40,0.00,,,0.00,,2013-04-28 12:21:00,
2013-04-28 06:32:00,48.0,24.0,29.64,WNW,295,2.0,7.0,39,0.00,,,0.00,,2013-04-28 12:32:00,
2013-04-28 06:42:00,48.0,24.0,29.64,WNW,295,2.0,7.0,39,0.00,,,0.00,,2013-04-28 12:42:00,
2013-04-28 06:51:00,48.0,25.0,29.64,WNW,287,2.0,5.0,40,0.00,,,0.00,,2013-04-28 12:51:00,
2013-04-28 07:02:00,48.0,25.0,29.65,WNW,287,1.0,4.0,41,0.00,,,0.00,,2013-04-28 13:02:00,
2013-04-28 07:11:00,48.0,25.0,29.65,WNW,287,1.0,4.0,41,0.00,,,0.00,,2013-04-28 13:11:00,
2013-04-28 07:21:00,48.0,26.0,29.63,WNW,286,2.0,5.0,42,0.00,,,0.00,,2013-04-28 13:21:00,
2013-04-28 07:31:00,48.0,25.0,29.65,WSW,238,0.0,5.0,41,0.00,,,0.00,,2013-04-28 13:31:00,
2013-04-28 07:42:00,48.0,25.0,29.65,WSW,238,0.0,5.0,41,0.00,,,0.00,,2013-04-28 13:42:00,
2013-04-28 07:52:00,49.0,25.0,29.65,WNW,299,2.0,7.0,38,0.00,,,0.00,,2013-04-28 13:52:00,
2013-04-28 08:01:00,50.0,26.0,29.65,WNW,287,0.0,7.0,39,0.00,,,0.00,,2013-04-28 14:01:00,
2013-04-28 08:11:00,50.0,26.0,29.65,WNW,287,0.0,7.0,39,0.00,,,0.00,,2013-04-28 14:11:00,
2013-04-28 08:21:00,50.0,26.0,29.65,West,281,7.0,10.0,39,0.00,,,0.00,,2013-04-28 14:21:00,
2013-04-28 08:31:00,51.0,27.0,29.66,WNW,300,5.0,7.0,39,0.00,,,0.00,,2013-04-28 14:31:00,
2013-04-28 08:41:00,51.0,27.0,29.66,WNW,300,5.0,7.0,39,0.00,,,0.00,,2013-04-28 14:41:00,
2013-04-28 08:52:00,52.0,27.0,29.67,WNW,302,2.0,6.0,38,0.00,,,0.00,,2013-04-28 14:52:00,
2013-04-28 09:01:00,53.0,26.0,29.68,NW,304,2.0,5.0,35,0.00,,,0.00,,2013-04-28 15:01:00,
2013-04-28 09:12:00,53.0,26.0,29.68,NW,304,2.0,5.0,35,0.00,,,0.00,,2013-04-28 15:12:00,
2013-04-28 09:21:00,52.0,26.0,29.68,NNE,18,7.0,11.0,36,0.00,,,0.00,,2013-04-28 15:21:00,
2013-04-28 09:32:00,52.0,28.0,29.69,NNE,24,9.0,14.0,40,0.00,,,0.00,,2013-04-28 15:32:00,
2013-04-28 09:42:00,52.0,28.0,29.69,NNE,24,9.0,14.0,40,0.00,,,0.00,,2013-04-28 15:42:00,
2013-04-28 09:53:00,51.0,28.0,29.69,North,355,5.0,10.0,41,0.00,,,0.00,,2013-04-28 15:53:00,
2013-04-28 10:03:00,51.0,29.0,29.68,NNE,19,9.0,13.0,43,0.00,,,0.00,,2013-04-28 16:03:00,
2013-04-28 10:12:00,51.0,29.0,29.68,NNE,19,9.0,13.0,43,0.00,,,0.00,,2013-04-28 16:12:00,
2013-04-28 10:23:00,52.0,29.0,29.69,NNE,14,7.0,15.0,41,0.00,,,0.00,,2013-04-28 16:23:00,
2013-04-28 10:32:00,53.0,30.0,29.69,NE,41,6.0,16.0,41,0.00,,,0.00,,2013-04-28 16:32:00,
2013-04-28 10:42:00,53.0,30.0,29.69,NE,41,6.0,16.0,41,0.00,,,0.00,,2013-04-28 16:42:00,
2013-04-28 10:52:00,54.0,30.0,29.70,NE,38,8.0,13.0,40,0.00,,,0.00,,2013-04-28 16:52:00,
2013-04-28 11:02:00,54.0,30.0,29.70,NNE,17,6.0,12.0,39,0.00,,,0.00,,2013-04-28 17:02:00,
2013-04-28 11:12:00,54.0,30.0,29.70,NNE,17,6.0,12.0,39,0.00,,,0.00,,2013-04-28 17:12:00,
2013-04-28 11:21:00,54.0,30.0,29.69,NNW,348,5.0,12.0,39,0.00,,,0.00,,2013-04-28 17:21:00,
2013-04-28 11:32:00,54.0,31.0,29.70,North,5,5.0,15.0,42,0.00,,,0.00,,2013-04-28 17:32:00,
2013-04-28 11:42:00,54.0,31.0,29.70,North,5,5.0,15.0,42,0.00,,,0.00,,2013-04-28 17:42:00,
2013-04-28 11:51:00,53.0,33.0,29.70,NE,42,9.0,15.0,46,0.00,,,0.00,,2013-04-28 17:51:00,
2013-04-28 12:02:00,52.0,35.0,29.70,NNE,22,13.0,22.0,52,0.00,,,0.00,,2013-04-28 18:02:00,
2013-04-28 12:12:00,52.0,35.0,29.70,NNE,22,13.0,22.0,52,0.00,,,0.00,,2013-04-28 18:12:00,
2013-04-28 12:22:00,50.0,37.0,29.71,NNE,12,15.0,23.0,60,0.00,,,0.00,,2013-04-28 18:22:00,
2013-04-28 12:32:00,48.0,38.0,29.72,NNE,23,15.0,23.0,67,0.00,,,0.00,,2013-04-28 18:32:00,
2013-04-28 12:42:00,48.0,38.0,29.72,NNE,23,15.0,23.0,67,0.00,,,0.00,,2013-04-28 18:42:00,
2013-04-28 12:52:00,47.0,39.0,29.72,NE,36,6.0,14.0,74,0.00,,,0.00,,2013-04-28 18:52:00,
2013-04-28 13:01:00,47.0,41.0,29.72,NE,46,11.0,16.0,80,0.01,,,0.01,,2013-04-28 19:01:00,
2013-04-28 13:11:00,47.0,41.0,29.72,NE,46,11.0,16.0,80,0.01,,,0.01,,2013-04-28 19:11:00,
2013-04-28 13:21:00,47.0,41.0,29.72,NNW,339,4.0,10.0,80,0.01,,,0.01,,2013-04-28 19:21:00,
2013-04-28 13:31:00,48.0,40.0,29.72,NW,309,1.0,8.0,74,0.01,,,0.01,,2013-04-28 19:31:00,
2013-04-28 13:41:00,48.0,40.0,29.72,NW,309,1.0,8.0,74,0.01,,,0.01,,2013-04-28 19:41:00,
2013-04-28 13:52:00,49.0,41.0,29.71,West,277,2.0,6.0,73,0.02,,,0.02,,2013-04-28 19:52:00,
2013-04-28 14:01:00,49.0,44.0,29.71,SSW,212,9.0,12.0,82,0.01,,,0.02,,2013-04-28 20:01:00,
2013-04-28 14:11:00,49.0,44.0,29.71,SSW,212,9.0,12.0,82,0.01,,,0.02,,2013-04-28 20:11:00,
2013-04-28 14:21:00,49.0,45.0,29.70,SSW,198,7.0,10.0,85,0.01,,,0.02,,2013-04-28 20:21:00,
2013-04-28 14:32:00,50.0,44.0,29.70,SSE,149,5.0,9.0,81,0.01,,,0.02,,2013-04-28 20:32:00,
2013-04-28 14:41:00,50.0,44.0,29.70,SSE,149,5.0,9.0,81,0.01,,,0.02,,2013-04-28 20:41:00,
2013-04-28 14:51:00,51.0,45.0,29.70,SSW,196,4.0,7.0,80,0.00,,,0.02,,2013-04-28 20:51:00,
2013-04-28 15:01:00,52.0,43.0,29.69,SSW,200,4.0,7.0,71,0.00,,,0.02,,2013-04-28 21:01:00,
2013-04-28 15:11:00,52.0,43.0,29.69,SSW,200,4.0,7.0,71,0.00,,,0.02,,2013-04-28 21:11:00,
2013-04-28 15:21:00,53.0,42.0,29.69,SSW,207,3.0,7.0,67,0.00,,,0.02,,2013-04-28 21:21:00,
2013-04-28 15:32:00,53.0,42.0,29.67,SSW,208,1.0,5.0,65,0.00,,,0.02,,2013-04-28 21:32:00,
2013-04-28 15:42:00,53.0,42.0,29.67,SSW,208,1.0,5.0,65,0.00,,,0.02,,2013-04-28 21:42:00,
2013-04-28 15:52:00,55.0,41.0,29.65,WSW,238,1.0,5.0,59,0.00,,,0.02,,2013-04-28 21:52:00,
2013-04-28 16:02:00,57.0,40.0,29.64,ESE,115,5.0,7.0,52,0.00,,,0.02,,2013-04-28 22:02:00,
2013-04-28 16:12:00,57.0,40.0,29.64,ESE,115,5.0,7.0,52,0.00,,,0.02,,2013-04-28 22:12:00,
2013-04-28 16:22:00,59.0,37.0,29.63,SSE,163,8.0,12.0,44,0.00,,,0.02,,2013-04-28 22:22:00,
2013-04-28 16:33:00,59.0,35.0,29.62,East,98,10.0,15.0,41,0.00,,,0.02,,2013-04-28 22:33:00,
2013-04-28 16:42:00,59.0,35.0,29.62,East,98,10.0,15.0,41,0.00,,,0.02,,2013-04-28 22:42:00,
2013-04-28 16:52:00,60.0,34.0,29.62,WSW,248,5.0,10.0,37,0.00,,,0.02,,2013-04-28 22:52:00,
2013-04-28 17:02:00,61.0,34.0,29.62,East,89,2.0,8.0,36,0.00,,,0.02,,2013-04-28 23:02:00,
2013-04-28 17:11:00,61.0,34.0,29.62,East,89,2.0,8.0,36,0.00,,,0.02,,2013-04-28 23:11:00,
2013-04-28 17:21:00,60.0,36.0,29.62,ENE,59,9.0,13.0,40,0.00,,,0.02,,2013-04-28 23:21:00,
2013-04-28 17:32:00,58.0,35.0,29.62,NE,41,6.0,16.0,42,0.00,,,0.02,,2013-04-28 23:32:00,
2013-04-28 17:41:00,58.0,35.0,29.62,NE,41,6.0,16.0,42,0.00,,,0.02,,2013-04-28 23:41:00,
2013-04-28 17:51:00,57.0,35.0,29.63,NE,36,8.0,13.0,43,0.00,,,0.02,,2013-04-28 23:51:00,
2013-04-28 18:01:00,58.0,36.0,29.63,SW,229,11.0,20.0,44,0.00,,,0.02,,2013-04-29 00:01:00,
2013-04-28 18:11:00,58.0,36.0,29.63,SW,229,11.0,20.0,44,0.00,,,0.02,,2013-04-29 00:11:00,
2013-04-28 18:21:00,58.0,33.0,29.62,South,186,8.0,15.0,39,0.00,,,0.02,,2013-04-29 00:21:00,
2013-04-28 18:32:00,57.0,36.0,29.62,South,187,7.0,10.0,45,0.00,,,0.02,,2013-04-29 00:32:00,
2013-04-28 18:41:00,57.0,36.0,29.62,South,187,7.0,10.0,45,0.00,,,0.02,,2013-04-29 00:41:00,
2013-04-28 18:52:00,57.0,34.0,29.62,SSW,212,9.0,28.0,41,0.00,,,0.02,,2013-04-29 00:52:00,
2013-04-28 19:01:00,57.0,34.0,29.61,SSW,208,10.0,13.0,42,0.00,,,0.02,,2013-04-29 01:01:00,
2013-04-28 19:11:00,57.0,33.0,29.61,SSW,207,6.0,12.0,40,0.00,,,0.02,,2013-04-29 01:11:00,
2013-04-28 19:21:00,57.0,33.0,29.61,SSW,207,6.0,12.0,40,0.00,,,0.02,,2013-04-29 01:21:00,
2013-04-28 19:32:00,56.0,33.0,29.61,West,269,5.0,8.0,41,0.00,,,0.02,,2013-04-29 01:32:00,
2013-04-28 19:41:00,56.0,33.0,29.61,West,269,5.0,8.0,41,0.00,,,0.02,,2013-04-29 01:41:00,
2013-04-28 19:52:00,56.0,35.0,29.60,West,268,2.0,5.0,45,0.00,,,0.02,,2013-04-29 01:52:00,
2013-04-28 20:01:00,55.0,34.0,29.60,West,268,3.0,4.0,45,0.00,,,0.02,,2013-04-29 02:01:00,
2013-04-28 20:11:00,55.0,34.0,29.60,West,268,3.0,4.0,45,0.00,,,0.02,,2013-04-29 02:11:00,
2013-04-28 20:21:00,54.0,35.0,29.60,West,268,2.0,6.0,49,0.00,,,0.02,,2013-04-29 02:21:00,
2013-04-28 20:31:00,53.0,35.0,29.60,West,268,1.0,4.0,51,0.00,,,0.02,,2013-04-29 02:31:00,
2013-04-28 20:41:00,53.0,35.0,29.60,West,268,1.0,4.0,51,0.00,,,0.02,,2013-04-29 02:41:00,
2013-04-28 20:51:00,51.0,34.0,29.60,West,268,2.0,4.0,53,0.00,,,0.02,,2013-04-29 02:51:00,
2013-04-28 21:01:00,50.0,35.0,29.60,West,268,2.0,5.0,57,0.00,,,0.02,,2013-04-29 03:01:00,
2013-04-28 21:12:00,50.0,35.0,29.60,West,268,2.0,5.0,57,0.00,,,0.02,,2013-04-29 03:12:00,
2013-04-28 21:21:00,50.0,35.0,29.61,NW,313,4.0,8.0,56,0.00,,,0.02,,2013-04-29 03:21:00,
2013-04-28 21:33:00,51.0,34.0,29.60,WNW,293,4.0,6.0,52,0.00,,,0.02,,2013-04-29 03:33:00,
2013-04-28 21:42:00,51.0,34.0,29.60,WNW,293,4.0,6.0,52,0.00,,,0.02,,2013-04-29 03:42:00,
2013-04-28 21:52:00,50.0,34.0,29.61,WNW,292,3.0,6.0,53,0.00,,,0.02,,2013-04-29 03:52:00,
2013-04-28 22:02:00,49.0,33.0,29.60,NW,304,7.0,11.0,53,0.00,,,0.02,,2013-04-29 04:02:00,
2013-04-28 22:12:00,49.0,33.0,29.60,NW,304,7.0,11.0,53,0.00,,,0.02,,2013-04-29 04:12:00,
2013-04-28 22:22:00,49.0,34.0,29.60,NW,317,5.0,10.0,55,0.00,,,0.02,,2013-04-29 04:22:00,
2013-04-28 22:32:00,50.0,33.0,29.60,West,263,4.0,10.0,51,0.00,,,0.02,,2013-04-29 04:32:00,
2013-04-28 22:43:00,50.0,33.0,29.60,West,263,4.0,10.0,51,0.00,,,0.02,,2013-04-29 04:43:00,
2013-04-28 22:52:00,50.0,33.0,29.60,NW,318,6.0,9.0,52,0.00,,,0.02,,2013-04-29 04:52:00,
2013-04-28 23:02:00,50.0,34.0,29.59,NW,308,3.0,9.0,53,0.00,,,0.02,,2013-04-29 05:02:00,
2013-04-28 23:12:00,50.0,34.0,29.59,NW,308,3.0,9.0,53,0.00,,,0.02,,2013-04-29 05:12:00,
2013-04-28 23:22:00,49.0,33.0,29.58,NW,319,6.0,10.0,53,0.00,,,0.02,,2013-04-29 05:22:00,
2013-04-28 23:32:00,48.0,33.0,29.58,NW,307,8.0,12.0,55,0.00,,,0.02,,2013-04-29 05:32:00,
2013-04-28 23:42:00,48.0,33.0,29.58,NW,307,8.0,12.0,55,0.00,,,0.02,,2013-04-29 05:42:00,
2013-04-28 23:52:00,48.0,33.0,29.58,WNW,299,5.0,11.0,55,0.00,,,0.02,,2013-04-29 05:52:00,